DELTA 4 R/B, 41585

Orbit data source: Space-Track

DELTA 4 R/B, 41585 is space debris in GEO originally from a launch on Sat, 11 Jun 2016 UTC launched from the Air Force Eastern Test Range (AFETR). Debris objects in space refer to the collection of defunct objects orbiting the Earth. Examples of debris include non-operational satellites, rocket bodies, and fragments generated from explosions, collisions, or faulty payload assembly.

Loading next visibility...
Identifier
41585, 2016-036B
Orbit
GEO
Country
Flag of USUS
Related business
Flag of USUnited Launch Alliance/Lockheed Martin (US)
Manufacturer
ULA Decatur
Mission
Spacecraft
Bus & Motor
DCSS-5, RL10B-2
Mass
3,450 kg wet, 3,450 kg dry
Launch date (UTC)
2016-06-11 (10 years ago)
Launch vehicle
Unknown
Launch site
Air Force Eastern Test Range (AFETR)
Object type
Payload
Rocket body
Debris
Shape & HBR
Cyl + 1 Nozzle, 6.8 m
Radar Cross Section
64.942 m², Medium (>0.1 m² and < 1m²)

Expand to show TLE details & history
Last TLE update: 3 days ago

TLE from 3 days ago
0 DELTA 4 R/B
1 41585U 16036B   26170.59366124 -.00000217  00000-0  00000-0 0  9992
2 41585   5.5642 358.6333 0228653 253.9366 103.5314  1.04080889 25752
Epoch: 2026-06-19T14:14Z
TLE epoch observation values (Epoch: 2026-06-19T14:14:52.331Z)
Latitude
Longitude
-122.89666°
Altitude
34,990.125 km
Speed
3.095 km/s
True Right ascension
23h 54m 34s
True Declination
0° 00' 00"
Sunlit
Object was in daylight at epoch
Visualization orbit readout
Latitude
Unknown
Longitude
Unknown
Altitude
Unknown
Speed
Unknown
Apparent Right ascension
Unknown
Apparent Declination
Unknown
Sunlit
N/A
Visualization observer readout
Local Sidereal Time
21:23:46
Azimuth
Unknown
Elevation
Unknown
Doppler factor
Unknown
Orbital elements
Apogee altitude
35,693.013 km
Perigee altitude
33,812.082 km
Semi-major axis
41,130.684 km
Eccentricity
0.02287
Inclination
5.5642°
RAAN
358.6333°
Arg. of periapsis
253.9366°
True anomaly
106.06109°
Mean anomaly
103.5314°
Eccentric anomaly
104.79803°
Mean motion
0.26019 °/min
Orbital period
1,383.59 mins
BSTAR
0
Loading maneuver chart data...
Computing Atmospheric mass density...
Loading historical data...
Loading historical data...
Loading historical data...
Loading historical data...
Loading historical data...
Loading historical data...
Loading historical data...
Other satellites on launch #36 in the year 2016 (2016-06-11 UTC)

Documentation

Showing up to 5 results
|